• Em Portugal
  • Lista de países
  • Para 7 dias
  • Temperatura da água
  • Mapas de satélite
  • Mapa do tempo
  • Widgets de tempo
  • user-avatar
    Iniciar Sessão

    Previsão horária em The Bissagos Islands

    Hoje, 22 Novembro, Quarta-feira

    Tempo Temperatura Precipitação Vento Pressão Humidade
    00:00 +28°C° 0 mm 5 m/s 759 mmHg 52%
    01:00 +27°C° 0 mm 5 m/s 759 mmHg 50%
    02:00 +27°C° 0 mm 5 m/s 759 mmHg 49%
    03:00 +27°C° 0 mm 5 m/s 759 mmHg 49%
    04:00 +26°C° 0 mm 4 m/s 759 mmHg 49%
    05:00 +26°C° 0 mm 4 m/s 759 mmHg 49%
    06:00 +27°C° 0 mm 4 m/s 759 mmHg 42%
    07:00 +28°C° 0 mm 4 m/s 759 mmHg 34%
    08:00 +28°C° 0 mm 4 m/s 759 mmHg 27%
    09:00 +31°C° 0 mm 3 m/s 759 mmHg 22%
    10:00 +35°C° 0 mm 3 m/s 759 mmHg 16%
    11:00 +38°C° 0 mm 2 m/s 760 mmHg 11%
    12:00 +39°C° 0 mm 2 m/s 759 mmHg 11%
    13:00 +39°C° 0 mm 2 m/s 758 mmHg 11%
    14:00 +40°C° 0 mm 2 m/s 758 mmHg 11%
    15:00 +38°C° 0 mm 3 m/s 758 mmHg 17%
    16:00 +36°C° 0 mm 3 m/s 757 mmHg 24%
    17:00 +34°C° 0 mm 4 m/s 757 mmHg 31%
    18:00 +32°C° 0 mm 4 m/s 758 mmHg 37%
    19:00 +30°C° 0 mm 4 m/s 758 mmHg 44%
    20:00 +28°C° 0 mm 4 m/s 759 mmHg 51%
    21:00 +28°C° 0 mm 4 m/s 759 mmHg 49%
    22:00 +27°C° 0 mm 4 m/s 759 mmHg 48%
    23:00 +27°C° 0 mm 4 m/s 759 mmHg 46%

    Amanhã, 23 Novembro, Quinta-feira

    Tempo Temperatura Precipitação Vento Pressão Humidade
    00:00 +26°C° 0 mm 4 m/s 759 mmHg 50%
    01:00 +26°C° 0 mm 4 m/s 759 mmHg 54%
    02:00 +25°C° 0 mm 4 m/s 758 mmHg 59%
    03:00 +25°C° 0 mm 4 m/s 758 mmHg 56%
    04:00 +23°C° 0 mm 4 m/s 758 mmHg 53%
    05:00 +23°C° 0 mm 4 m/s 758 mmHg 51%
    06:00 +25°C° 0 mm 4 m/s 759 mmHg 43%
    07:00 +26°C° 0 mm 4 m/s 759 mmHg 34%
    08:00 +28°C° 0 mm 4 m/s 759 mmHg 26%
    09:00 +32°C° 0 mm 4 m/s 759 mmHg 23%
    10:00 +35°C° 0 mm 3 m/s 760 mmHg 19%
    11:00 +38°C° 0 mm 3 m/s 760 mmHg 15%
    12:00 +38°C° 0 mm 3 m/s 759 mmHg 16%
    13:00 +39°C° 0 mm 2 m/s 758 mmHg 16%
    14:00 +40°C° 0 mm 2 m/s 758 mmHg 16%
    15:00 +38°C° 0 mm 2 m/s 758 mmHg 24%
    16:00 +36°C° 0 mm 3 m/s 758 mmHg 32%
    17:00 +33°C° 0 mm 3 m/s 758 mmHg 40%
    18:00 +32°C° 0 mm 4 m/s 758 mmHg 47%
    19:00 +30°C° 0 mm 4 m/s 759 mmHg 53%
    20:00 +29°C° 0 mm 5 m/s 760 mmHg 60%
    21:00 +28°C° 0 mm 5 m/s 760 mmHg 62%
    22:00 +28°C° 0 mm 5 m/s 760 mmHg 64%
    23:00 +28°C° 0 mm 5 m/s 760 mmHg 67%

    Depois de amanhã, 24 Novembro, Sexta-feira

    Tempo Temperatura Precipitação Vento Pressão Humidade
    00:00 +27°C° 0 mm 5 m/s 760 mmHg 70%
    01:00 +27°C° 0 mm 5 m/s 760 mmHg 72%
    02:00 +27°C° 0 mm 5 m/s 759 mmHg 75%
    03:00 +26°C° 0 mm 5 m/s 759 mmHg 73%
    04:00 +24°C° 0 mm 6 m/s 759 mmHg 70%
    05:00 +24°C° 0 mm 6 m/s 759 mmHg 68%
    06:00 +26°C° 0 mm 6 m/s 760 mmHg 63%
    07:00 +27°C° 0 mm 6 m/s 760 mmHg 57%
    08:00 +28°C° 0 mm 6 m/s 760 mmHg 52%
    09:00 +30°C° 0 mm 5 m/s 760 mmHg 42%
    10:00 +34°C° 0 mm 4 m/s 760 mmHg 32%
    11:00 +37°C° 0 mm 4 m/s 760 mmHg 23%
    12:00 +38°C° 0 mm 3 m/s 759 mmHg 21%
    13:00 +39°C° 0 mm 3 m/s 758 mmHg 19%
    14:00 +40°C° 0 mm 3 m/s 758 mmHg 18%
    15:00 +38°C° 0 mm 3 m/s 758 mmHg 26%
    16:00 +36°C° 0 mm 4 m/s 758 mmHg 35%
    17:00 +34°C° 0 mm 4 m/s 758 mmHg 43%
    18:00 +33°C° 0 mm 4 m/s 758 mmHg 50%
    19:00 +30°C° 0 mm 5 m/s 759 mmHg 58%
    20:00 +29°C° 0 mm 5 m/s 760 mmHg 65%
    21:00 +29°C° 0 mm 5 m/s 760 mmHg 67%
    22:00 +28°C° 0 mm 5 m/s 760 mmHg 69%
    23:00 +27°C° 0 mm 5 m/s 760 mmHg 71%

    25 Novembro, Sábado

    Tempo Temperatura Precipitação Vento Pressão Humidade
    00:00 +27°C° 0 mm 5 m/s 760 mmHg 68%
    01:00 +27°C° 0 mm 4 m/s 759 mmHg 66%
    02:00 +26°C° 0 mm 4 m/s 759 mmHg 63%
    03:00 +26°C° 0 mm 4 m/s 759 mmHg 62%
    04:00 +26°C° 0 mm 4 m/s 759 mmHg 62%
    05:00 +25°C° 0 mm 4 m/s 759 mmHg 61%
    06:00 +26°C° 0 mm 4 m/s 759 mmHg 54%
    07:00 +28°C° 0 mm 5 m/s 760 mmHg 46%
    08:00 +29°C° 0 mm 5 m/s 761 mmHg 38%
    09:00 +33°C° 0 mm 4 m/s 760 mmHg 32%
    10:00 +35°C° 0 mm 3 m/s 760 mmHg 26%
    11:00 +38°C° 0 mm 3 m/s 760 mmHg 19%
    12:00 +39°C° 0 mm 2 m/s 759 mmHg 20%
    13:00 +40°C° 0 mm 2 m/s 758 mmHg 20%
    14:00 +40°C° 0 mm 2 m/s 757 mmHg 20%
    15:00 +38°C° 0 mm 3 m/s 757 mmHg 28%
    16:00 +36°C° 0 mm 3 m/s 758 mmHg 36%
    17:00 +34°C° 0 mm 4 m/s 758 mmHg 44%
    18:00 +32°C° 0 mm 4 m/s 758 mmHg 50%
    19:00 +30°C° 0 mm 5 m/s 759 mmHg 55%
    20:00 +29°C° 0 mm 5 m/s 759 mmHg 61%
    21:00 +29°C° 0 mm 5 m/s 759 mmHg 62%
    22:00 +29°C° 0 mm 5 m/s 760 mmHg 63%
    23:00 +28°C° 0 mm 5 m/s 760 mmHg 65%

    26 Novembro, Domingo

    Tempo Temperatura Precipitação Vento Pressão Humidade
    00:00 +28°C° 0 mm 5 m/s 759 mmHg 67%
    01:00 +28°C° 0 mm 5 m/s 759 mmHg 69%
    02:00 +28°C° 0 mm 5 m/s 758 mmHg 71%
    03:00 +28°C° 0 mm 5 m/s 758 mmHg 73%
    04:00 +28°C° 0 mm 5 m/s 759 mmHg 76%
    05:00 +28°C° 0 mm 6 m/s 759 mmHg 78%
    06:00 +29°C° 0 mm 5 m/s 759 mmHg 74%
    07:00 +30°C° 0 mm 4 m/s 760 mmHg 69%
    08:00 +31°C° 0 mm 3 m/s 760 mmHg 64%
    09:00 +34°C° 0 mm 3 m/s 760 mmHg 57%
    10:00 +36°C° 0 mm 3 m/s 760 mmHg 49%
    11:00 +37°C° 0 mm 4 m/s 760 mmHg 42%
    12:00 +37°C° 0 mm 4 m/s 759 mmHg 42%
    13:00 +38°C° 0 mm 4 m/s 759 mmHg 41%
    14:00 +38°C° 0 mm 4 m/s 758 mmHg 41%
    15:00 +36°C° 0 mm 4 m/s 758 mmHg 47%
    16:00 +35°C° 0 mm 4 m/s 758 mmHg 54%
    17:00 +33°C° 0 mm 4 m/s 758 mmHg 60%
    18:00 +32°C° 0 mm 4 m/s 759 mmHg 66%
    19:00 +30°C° 0 mm 5 m/s 759 mmHg 72%
    20:00 +29°C° 0 mm 5 m/s 760 mmHg 77%
    21:00 +29°C° 0 mm 5 m/s 760 mmHg 79%
    22:00 +29°C° 0 mm 5 m/s 760 mmHg 81%
    23:00 +28°C° 0 mm 5 m/s 759 mmHg 83%

    27 Novembro, Segunda-feira

    Tempo Temperatura Precipitação Vento Pressão Humidade
    00:00 +28°C° 0 mm 4 m/s 759 mmHg 84%
    01:00 +28°C° 0 mm 4 m/s 759 mmHg 85%
    02:00 +27°C° 0 mm 4 m/s 758 mmHg 86%
    03:00 +27°C° 0 mm 3 m/s 759 mmHg 87%
    04:00 +27°C° 0 mm 3 m/s 759 mmHg 88%
    05:00 +26°C° 0 mm 2 m/s 759 mmHg 89%
    06:00 +28°C° 0 mm 2 m/s 759 mmHg 81%
    07:00 +29°C° 0 mm 1 m/s 760 mmHg 74%
    08:00 +31°C° 0 mm 1 m/s 760 mmHg 66%
    09:00 +33°C° 0 mm 1 m/s 760 mmHg 56%
    10:00 +35°C° 0 mm 1 m/s 760 mmHg 46%
    11:00 +37°C° 0 mm 1 m/s 760 mmHg 37%
    12:00 +38°C° 0 mm 2 m/s 760 mmHg 36%
    13:00 +38°C° 0 mm 2 m/s 759 mmHg 36%
    14:00 +39°C° 0 mm 3 m/s 758 mmHg 36%
    15:00 +37°C° 0 mm 4 m/s 759 mmHg 46%
    16:00 +35°C° 0 mm 5 m/s 759 mmHg 57%
    17:00 +33°C° 0 mm 6 m/s 759 mmHg 67%
    18:00 +32°C° 0 mm 6 m/s 759 mmHg 70%
    19:00 +32°C° 0 mm 7 m/s 760 mmHg 72%
    20:00 +30°C° 0 mm 7 m/s 760 mmHg 75%
    21:00 +30°C° 0 mm 7 m/s 760 mmHg 76%
    22:00 +30°C° 0 mm 6 m/s 760 mmHg 77%
    23:00 +29°C° 0 mm 6 m/s 760 mmHg 79%
    Mostrar mais